Regional Weather Roundup
Issued by NWS Wakefield, VA

Home | Current Version | Previous Version | Graphics & Text | Print | Product List | Glossary On
Versions: 1 2 3 4 5 6 7 8 9 10 11 12 13 14 15 16 17 18 19 20 21 22 23 24 25 26 27 28 29 30 31 32 33 34 35 36 37 38 39 40 41 42 43 44 45 46 47 48 49 50
000
ASUS41 KAKQ 010813
RWRAKQ

REGIONAL WEATHER ROUNDUP
NATIONAL WEATHER SERVICE WAKEFIELD VA
400 AM EDT TUE SEP 01 2015

Note: "fair" indicates few or no clouds below 12,000 feet with no
significant weather and/or obstructions to visibility. * = Denotes
station may not report precipitation (e.g., rain,snow,etc.),
thunder or fog.

VAZ042-051-052>054-056-010900-
NORTHERN VIRGINIA

CITY           SKY/WX    TMP DP  RH WIND       PRES   REMARKS
WASH NATIONAL  PTCLDY    72  69  90 SW6       30.05S
DULLES         CLEAR     69  67  93 CALM      30.05S
FORT BELVOIR   CLEAR     68  66  94 CALM      30.04F
QUANTICO       CLEAR     72  68  87 W3        30.05F
FREDERICKSBRG* CLOUDY    73  73 100 CALM      30.04S
STAFFORD*      CLOUDY    69  67  94 CALM      30.09S
WARRENTON      FOG       67  67 100 CALM      30.05S VSB 1/2
CULPEPER*      FOG       65  65 100 CALM      30.06S VSB 1/2
MANASSAS*      CLEAR     68  68 100 CALM      30.05S
LEESBURG*      CLEAR     70  70 100 CALM      30.06S
WINCHESTER     CLEAR     66  63  88 CALM      30.07S
FRONT ROYAL*   FAIR      66  63  88 S5        30.07S
LURAY*         FAIR      63  63 100 CALM      30.09S
$$

VAZ048-049-060>072-079>083-010900-
CENTRAL AND SOUTH CENTRAL VIRGINIA

CITY           SKY/WX    TMP DP  RH WIND       PRES   REMARKS
RICHMOND       MOCLDY    72  68  87 CALM      30.05F
CHESTERFIELD*  CLOUDY    70  57  64 CALM      30.07S
PETERSBURG*    CLOUDY    73  73 100 CALM      30.06F
HANOVER        PTCLDY    70  68  93 CALM      30.07F
TAPPAHANNOCK*  CLOUDY    70  68  92 CALM      30.06S FOG
QUINTON*       CLOUDY    71  70  96 W8        30.05S
CHARLOTTSVILLE CLEAR     66  63  90 CALM      30.06F
GORDONSVILLE*  FOG       69  69 100 CALM      30.06S VSB 1/2
ORANGE*        FOG       70  70 100 S3        30.07S VSB 1/2
LOUISA*        PTCLDY    70  70 100 CALM      30.05F FOG
BUMPASS*       CLOUDY    70  69  97 MISG      30.06S
FARMVILLE*     FOG       67  67 100 CALM      30.05F VSB<1/4
CREWE*         CLOUDY   N/A N/A N/A CALM      30.06F VSB 1/4
FORT PICKETT*  CLOUDY    70  69  98 W9        30.06F VSB 1
CHASE CITY*    CLOUDY    69  69 100 CALM      30.07S
CLARKSVILLE*   PTSUNNY   64  64 100 CALM      30.06F
SOUTH HILL*    CLOUDY    71  70  98 CALM      30.12S
LAWRENCEVILLE* CLOUDY    70  70 100 CALM      30.06S
EMPORIA*       CLOUDY    70  70 100 CALM      30.07S
$$

VAZ088>098-010900-
SOUTHEAST VIRGINIA

CITY           SKY/WX    TMP DP  RH WIND       PRES   REMARKS
NORFOLK        CLOUDY    74  70  87 CALM      30.04S
VIRGINIA BEACH MOCLDY    74  70  87 CALM      30.04S
NORFOLK NAVAL  MOCLDY    74  71  91 NW3       30.05F
WEST POINT*    CLOUDY    74  70  86 W8        30.06F
SALUDA*        CLOUDY    71  70  95 CALM      30.05S
NEWPORT NEWS   CLOUDY    73  71  93 N3        30.04F
LANGLEY AFB    DRIZZLE   72  70  94 CALM      30.03F
FORT EUSTIS    CLOUDY    73 N/A N/A CALM      30.03S
WILLIAMSBURG*  PTCLDY    75  73  94 CALM      30.06S
HR EXEC AP*      N/A     70  68  94 CALM      30.06F
FRANKLIN*      CLOUDY    71  71  99 CALM      30.05F FOG
WAKEFIELD      CLOUDY    71  68  90 CALM      30.05S FOG
$$

VAZ020-022-025-037-045-010900-
WEST CENTRAL AND SOUTHWEST VIRGINIA

CITY           SKY/WX    TMP DP  RH WIND       PRES   REMARKS
STAUNTON*      CLEAR     64  61  91 CALM      30.13S
WAYNESBORO*    FAIR      64  62  90 CALM      30.12S
HOT SPRINGS VA CLEAR     66  61  85 NW9       30.23S
LYNCHBURG      CLEAR     64  64 100 CALM      30.10S FOG
DANVILLE       CLEAR     66  65  96 SW3       30.08F FOG
SOUTH BOSTON*  CLOUDY    64  63  94 CALM      30.07F VSB 1/2
MARTINSVILLE   PTCLDY    64  64 100 CALM      30.12F FOG
ROANOKE        CLEAR     67  64  90 CALM      30.13S
BLACKSBURG     CLEAR     61  61 100 CALM      30.20S
DUBLIN*        MOCLDY    63  63 100 CALM      30.18S
MARION*        CLEAR     61  60  95 CALM      30.22S
HILLSVILLE*    CLEAR     62  62  99 CALM      30.18F FOG
RICHLANDS*     FAIR      63  37  38 CALM      30.20S
WISE*          CLEAR     64  64 100 CALM      30.22S
ABINGDON*      CLEAR     65  62  89 CALM      30.17S
$$

MDZ021>025-VAZ099-100-010900-
SOUTHERN MARYLAND AND THE DELMARVA PENINSULA

CITY           SKY/WX    TMP DP  RH WIND       PRES   REMARKS
PATUXENT RIVER CLEAR     68  66  93 CALM      30.04F
BAY BRIDGE APT   N/A     73  70  88 CALM      30.04S
LEONARDTOWN    NOT AVBL
DOVER          CLEAR     73  73 100 SW7       30.02S
GEORGETOWN     CLEAR     70  68  93 SW5       30.05S
EASTON         NOT AVBL
CAMBRIDGE      CLEAR     70  66  88 CALM      30.04F
SALISBURY      CLEAR     68  66  93 CALM      30.04F
OCEAN CITY     CLEAR     70  68  93 W3        30.04F
WALLOPS ISLAND MOCLDY    71  70  96 SW3       30.05F
ACCOMACK*      CLEAR     64  59  82 CALM      30.04S HAZE
$$

NCZ012>017-030>032-010900-
NORTH CENTRAL AND EASTERN NORTH CAROLINA

CITY           SKY/WX    TMP DP  RH WIND       PRES   REMARKS
ROANOKE RAPIDS FOG       70  70 100 CALM      30.06R VSB 1/4
RALEIGH        FOG       69  69 100 CALM      30.08S VSB 1/16
ELIZABETH CITY CLOUDY    74  72  93 NE3       30.03F
AHOSKIE*       FOG       70  70  99 CALM      30.05F VSB 1/2
EDENTON*       CLOUDY    70  69  99 CALM      30.04S
CURRITUCK*     CLOUDY    73  71  93 CALM      30.05S
KILL DEVIL HLS CLOUDY    75  73  94 CALM      30.02F
MANTEO         CLOUDY    74  74  98 NE7       30.03F
CAPE HATTERAS  MOCLDY    78  76  93 W3        30.01F
TARBORO*       FOG       73  72  97 CALM      30.06S VSB 3/4
GOLDSBORO      FOG       73  73 100 NW3       30.04S VSB 1/4
WASHINGTON     CLOUDY    73  72  98 NW3       30.03F FOG
GREENVILLE     CLOUDY    73  73 100 CALM      30.06S
NEW BERN       CLOUDY    75  73  93 CALM      30.04S
WILMINGTON     CLOUDY    73  72  96 NW3       30.04S
$$

VAZ048-010900-
ELSEWHERE

CITY           SKY/WX    TMP DP  RH WIND       PRES   REMARKS
HARRISBURG PA  CLEAR     71  67  87 CALM      30.03S
BALTIMORE      CLEAR     71  68  90 CALM      30.03F
ANNAPOLIS      CLEAR     73  70  90 W3        30.03S
ANDREWS AFB    CLEAR     70  69  96 SW5       30.04S
PHILADELPHIA   PTCLDY    74  69  85 SW7       30.03S
HENDERSON NC   FOG       69  67  93 W3        30.07S VSB 1/2
GREENSBORO     CLEAR     70  68  93 CALM      30.09F
ROCKY MOUNT    FOG       72  72 100 W5        30.06R VSB 1
$$

VAZ100-010900-
MARINE

STATION/POSITION TIME  TEMP    WIND        PRES    WAVE   SWELL
                       AIR SEA DIR/SP/G            HT/PER HT/PER
                 (UTC) (F)     (DEG/KT/KT) (MB)    (FT/S) (FT/S)
BRANDYWINE LGT   0700   74 76  260/ 12/ 14   N/A
CAPE MAY NJ      0700   75 79  260/  8/ 10   N/A
LEWES DE         0700   73 75  250/  7/ 11   N/A
15NM E FENWICK I 0750   76 78  260/ 10/ 14 1017.4F   2/ 9   2/ 9
OCEAN-CITY-INLET 0700   73 77  260/  6/  7   N/A
GOOSES REEF MD   0800   75 79  280/ 10/ 12 1018.0F
COVE POINT MD    0700   72     280/ 10/ 15   N/A
SOLOMONS ISLAND  0700      80                N/A
BISHOPS HEAD MD  0700   75 77  250/ 10/ 11   N/A
PINEY POINT MD   0705          280/  5/  6   N/A
POTOMAC MD       0800   73 79  270/  8/ 12 1016.2F   1
CAMBRIDGE MD     0700   72 80  270/  2/  3   N/A
LEWISETTA VA     0700   71 79  260/  5/  6   N/A
RAPPAHANNOCK LGT 0700          260/  6/  7   N/A
STINGRAY PT      0800   74 79  260/  6/  8 1017.7F   0
YORK RVR RNG VA  0700   74     300/  5/  7   N/A
YORKTOWN VA      0700   74 80  260/  4/  5   N/A
JAMESTOWN VA     0800   73 81  260/  6/  8   N/A
DOMINION TERM VA 0700   75     310/  6/  7   N/A
KIPTOPEKE VA     0700      79  320/  2/  3   N/A
CHES BAY BRIDGE  0700   75 79  330/  3/  4   N/A
CAPE HENRY VA    0700   74     290/  2/  2   N/A
CHESAPEAKE LGHT  0700   76      90/  1/  2 1018.2F
WILLOUBY STN VA  0700   75     330/  3/  4   N/A
CAPE HENRY BUOY  0758      78                N/A     2/ 9
1ST LANDING BUOY 0800      78              1017.0F   1
CAPE CHARLES BUO 0756      78                N/A     2/ 9   2/ 9
OFFSHORE WE BUOY 0741      78                N/A     2/ 9   2/ 9
64NM E OF VA BCH 0750   77 78   80/  8/  8 1016.9F   2/ 8   2/ 8
DUCK PIER NC     0700   76 78   90/  7/  8   N/A
44100 DUCK FRF   0754      78                N/A     2/ 8
44056 DUCK FRF   0741      78                N/A     2/ 9
OREGON INLET NC  0700   75 80  280/  4/  6   N/A
HATTERAS NC      0700   79 80  210/  4/  5   N/A
DIAMOND SHLS NC  0750   78 84  210/  8/ 12 1016.6S   4/ 8   3/ 8
CAPE LOOKOUT NC  0800   78     320/ 10/ 13 1016.1R
$$



USA.gov is the U.S. government's official web portal to all federal, state and local government web resources and services.